Location: Unspecified
(0.0000°N, 0.0000°E)
Time: 02:24:25
(UTC+00:00)

SR - Pass Details

Date: 09 October 2020
Orbit: 581 x 874 km, 66.7° (Epoch: 25 October)

Event Time Altitude Azimuth Distance (km) Brightness Sun altitude
Rises 04:26:18 0° 175° (S) 3,036 ? -20.1°
Reaches altitude 10° 04:29:17 10° 157° (SSE) 2,063 ? -19.4°
Maximum altitude 04:32:32 19° 112° (ESE) 1,508 ? -18.6°
Drops below altitude 10° 04:35:38 10° 67° (ENE) 1,957 ? -17.8°
Sets 04:38:22 0° 48° (NE) 2,824 ? -17.1°
